NORTHEAST SUFFOLK  -  Winter Weather Advisory Winter Weather Advisory        NORTHERN NASSAU  -  Winter Weather Advisory Winter Weather Advisory        NORTHWEST SUFFOLK  -  Winter Weather Advisory Winter Weather Advisory        SOUTHEAST SUFFOLK  -  Winter Weather Advisory Winter Weather Advisory        SOUTHERN NASSAU  -  Winter Weather Advisory Winter Weather Advisory        SOUTHWEST SUFFOLK  -  Winter Weather Advisory Winter Weather Advisory      

Active alerts

Northern Nassau
  Details for Northern Nassau Winter Weather Advisory
Southern Nassau
  Details for Southern Nassau Winter Weather Advisory
Northwest Suffolk
  Details for Northwest Suffolk Winter Weather Advisory
Southwest Suffolk
  Details for Southwest Suffolk Winter Weather Advisory
Northeast Suffolk
  Details for Northeast Suffolk Winter Weather Advisory
Southeast Suffolk
  Details for Southeast Suffolk Winter Weather Advisory


WXM80 ListenWXM80 Stop

You find our weather info also at:

UK Metoffice

WeatherCloud

Weather Underground

Northeastern Weather Network

AWEKAS

Citizen Weather Observer Program (CWOP)

HAMweather, WeatherForYou, PWS Weather


Weather Underground History page Text

Daily Summary for February 9, 2017 Units:  Both    English   Metric
« Previous Day
Next Day »
Daily Weekly Monthly Yearly Custom
  High: Low: Average:
Temperature: 40.4 °F /  4.7 °C 18.5 °F /  -7.5 °C 28.6 °F /  -1.9 °C
Dew Point: 36.3 °F /  2.4 °C 10.0 °F /  -12.2 °C 24.6 °F /  -4.1 °C
Humidity: 97 % 69 % 86 %
Wind Speed: 16.9 mph /  27.2 km/h - 8.6 mph /  13.8 km/h
Wind Gust: 29.0 mph /  46.7 km/h - -
Wind:- - SSW
Pressure: 30.02 in /  1016.5 hPa 29.44 in /  996.8 hPa -
Precipitation: 0.00 in /  0 mm    
Historical Graphs
 
 
Tabular Data for February 9, 2017
Time Temperature Dew Point Pressure Wind Wind Speed Wind Gust Humidity Rainfall Rate (Hourly)
00:02 40.4 °F /  4.7 °C 35.9 °F /  2.2 °C 29.68 in /  1005 hPa ENE 2.3 mph /  3.7 km/h 3.5 mph /  5.6 km/h 84 % 0.00 in /  0 mm
00:07 40.3 °F /  4.6 °C 35.8 °F /  2.1 °C 29.68 in /  1005 hPa ENE 3.1 mph /  5 km/h 4.6 mph /  7.4 km/h 84 % 0.00 in /  0 mm
00:12 40.3 °F /  4.6 °C 36.1 °F /  2.3 °C 29.68 in /  1005 hPa ENE 4.2 mph /  6.8 km/h 7.0 mph /  11.3 km/h 85 % 0.00 in /  0 mm
00:17 40.2 °F /  4.6 °C 36.3 °F /  2.4 °C 29.68 in /  1005 hPa NE 2.1 mph /  3.4 km/h 6.9 mph /  11.1 km/h 86 % 0.00 in /  0 mm
00:22 40.2 °F /  4.6 °C 36.3 °F /  2.4 °C 29.68 in /  1005 hPa ENE 1.2 mph /  1.9 km/h 3.5 mph /  5.6 km/h 86 % 0.00 in /  0 mm
00:27 40.2 °F /  4.6 °C 36.3 °F /  2.4 °C 29.68 in /  1005 hPa ENE 0.5 mph /  0.8 km/h 2.3 mph /  3.7 km/h 86 % 0.00 in /  0 mm
00:33 40.0 °F /  4.4 °C 35.9 °F /  2.2 °C 29.68 in /  1005 hPa ENE 3.3 mph /  5.3 km/h 6.9 mph /  11.1 km/h 85 % 0.00 in /  0 mm
00:38 39.9 °F /  4.4 °C 35.5 °F /  1.9 °C 29.67 in /  1004.6 hPa ENE 3.7 mph /  6 km/h 5.0 mph /  8 km/h 84 % 0.00 in /  0 mm
00:43 39.8 °F /  4.3 °C 35.1 °F /  1.7 °C 29.67 in /  1004.6 hPa ENE 4.1 mph /  6.6 km/h 6.9 mph /  11.1 km/h 83 % 0.00 in /  0 mm
00:48 39.8 °F /  4.3 °C 35.1 °F /  1.7 °C 29.66 in /  1004.3 hPa ENE 5.5 mph /  8.9 km/h 8.1 mph /  13 km/h 83 % 0.00 in /  0 mm
00:53 39.7 °F /  4.3 °C 34.3 °F /  1.3 °C 29.66 in /  1004.3 hPa ENE 6.8 mph /  10.9 km/h 9.2 mph /  14.8 km/h 81 % 0.00 in /  0 mm
00:58 39.6 °F /  4.2 °C 33.3 °F /  0.7 °C 29.66 in /  1004.3 hPa ENE 8.2 mph /  13.2 km/h 11.5 mph /  18.5 km/h 78 % 0.00 in /  0 mm
01:03 39.5 °F /  4.2 °C 32.9 °F /  0.5 °C 29.64 in /  1003.6 hPa NE 8.1 mph /  13 km/h 10.4 mph /  16.7 km/h 77 % 0.00 in /  0 mm
01:08 39.4 °F /  4.1 °C 32.8 °F /  0.4 °C 29.64 in /  1003.6 hPa ENE 9.0 mph /  14.5 km/h 12.0 mph /  19.3 km/h 77 % 0.00 in /  0 mm
01:13 39.3 °F /  4.1 °C 33.0 °F /  0.6 °C 29.64 in /  1003.6 hPa ENE 9.1 mph /  14.6 km/h 11.5 mph /  18.5 km/h 78 % 0.00 in /  0 mm
01:18 39.2 °F /  4 °C 32.9 °F /  0.5 °C 29.63 in /  1003.3 hPa ENE 8.0 mph /  12.9 km/h 12.0 mph /  19.3 km/h 78 % 0.00 in /  0 mm
01:23 39.1 °F /  3.9 °C 32.9 °F /  0.5 °C 29.63 in /  1003.3 hPa ENE 7.0 mph /  11.3 km/h 12.0 mph /  19.3 km/h 78 % 0.00 in /  0 mm
01:28 39.1 °F /  3.9 °C 32.8 °F /  0.4 °C 29.63 in /  1003.3 hPa ENE 8.0 mph /  12.9 km/h 12.0 mph /  19.3 km/h 78 % 0.00 in /  0 mm
01:33 39.0 °F /  3.9 °C 32.7 °F /  0.4 °C 29.63 in /  1003.3 hPa ENE 8.0 mph /  12.9 km/h 13.0 mph /  20.9 km/h 78 % 0.00 in /  0 mm
01:38 39.0 °F /  3.9 °C 32.7 °F /  0.4 °C 29.64 in /  1003.6 hPa ENE 7.0 mph /  11.3 km/h 12.0 mph /  19.3 km/h 78 % 0.00 in /  0 mm
01:43 38.9 °F /  3.8 °C 32.6 °F /  0.3 °C 29.64 in /  1003.6 hPa ENE 7.0 mph /  11.3 km/h 12.0 mph /  19.3 km/h 78 % 0.00 in /  0 mm
01:48 38.9 °F /  3.8 °C 32.6 °F /  0.3 °C 29.64 in /  1003.6 hPa ENE 6.0 mph /  9.7 km/h 10.0 mph /  16.1 km/h 78 % 0.00 in /  0 mm
01:53 38.9 °F /  3.8 °C 32.9 °F /  0.5 °C 29.64 in /  1003.6 hPa NE 5.9 mph /  9.5 km/h 9.2 mph /  14.8 km/h 79 % 0.00 in /  0 mm
01:58 38.8 °F /  3.8 °C 32.8 °F /  0.4 °C 29.64 in /  1003.6 hPa ENE 5.9 mph /  9.5 km/h 9.2 mph /  14.8 km/h 79 % 0.00 in /  0 mm
02:03 38.8 °F /  3.8 °C 32.5 °F /  0.3 °C 29.63 in /  1003.3 hPa NE 6.0 mph /  9.7 km/h 11.5 mph /  18.5 km/h 78 % 0.00 in /  0 mm
02:09 38.7 °F /  3.7 °C 32.4 °F /  0.2 °C 29.63 in /  1003.3 hPa ENE 3.3 mph /  5.3 km/h 8.1 mph /  13 km/h 78 % 0.00 in /  0 mm
02:14 38.7 °F /  3.7 °C 32.1 °F /  0.1 °C 29.63 in /  1003.3 hPa ENE 5.7 mph /  9.2 km/h 9.0 mph /  14.5 km/h 77 % 0.00 in /  0 mm
02:19 38.6 °F /  3.7 °C 32.0 °F /  0 °C 29.63 in /  1003.3 hPa NE 4.7 mph /  7.6 km/h 7.0 mph /  11.3 km/h 77 % 0.00 in /  0 mm
02:24 38.6 °F /  3.7 °C 31.7 °F /  -0.2 °C 29.62 in /  1002.9 hPa ENE 5.8 mph /  9.3 km/h 9.0 mph /  14.5 km/h 76 % 0.00 in /  0 mm
02:29 38.5 °F /  3.6 °C 30.9 °F /  -0.6 °C 29.61 in /  1002.6 hPa ENE 8.7 mph /  14 km/h 11.5 mph /  18.5 km/h 74 % 0.00 in /  0 mm
02:34 38.4 °F /  3.6 °C 31.2 °F /  -0.4 °C 29.61 in /  1002.6 hPa East 7.3 mph /  11.7 km/h 11.5 mph /  18.5 km/h 75 % 0.00 in /  0 mm
02:39 38.4 °F /  3.6 °C 30.8 °F /  -0.7 °C 29.60 in /  1002.3 hPa ENE 7.3 mph /  11.7 km/h 10.4 mph /  16.7 km/h 74 % 0.00 in /  0 mm
02:44 38.3 °F /  3.5 °C 31.1 °F /  -0.5 °C 29.60 in /  1002.3 hPa ENE 7.4 mph /  11.9 km/h 9.2 mph /  14.8 km/h 75 % 0.00 in /  0 mm
02:49 38.3 °F /  3.5 °C 31.1 °F /  -0.5 °C 29.60 in /  1002.3 hPa ENE 6.3 mph /  10.1 km/h 10.4 mph /  16.7 km/h 75 % 0.00 in /  0 mm
02:55 38.2 °F /  3.4 °C 30.6 °F /  -0.8 °C 29.59 in /  1001.9 hPa ENE 8.1 mph /  13 km/h 11.5 mph /  18.5 km/h 74 % 0.00 in /  0 mm
03:00 38.2 °F /  3.4 °C 30.6 °F /  -0.8 °C 29.59 in /  1001.9 hPa ENE 6.4 mph /  10.3 km/h 10.4 mph /  16.7 km/h 74 % 0.00 in /  0 mm
03:05 38.2 °F /  3.4 °C 31.3 °F /  -0.4 °C 29.59 in /  1001.9 hPa NE 4.1 mph /  6.6 km/h 9.2 mph /  14.8 km/h 76 % 0.00 in /  0 mm
03:10 38.2 °F /  3.4 °C 31.3 °F /  -0.4 °C 29.58 in /  1001.6 hPa NE 5.0 mph /  8 km/h 9.2 mph /  14.8 km/h 76 % 0.00 in /  0 mm
03:15 38.1 °F /  3.4 °C 31.2 °F /  -0.4 °C 29.58 in /  1001.6 hPa NE 5.3 mph /  8.5 km/h 8.1 mph /  13 km/h 76 % 0.00 in /  0 mm
03:20 38.0 °F /  3.3 °C 31.1 °F /  -0.5 °C 29.57 in /  1001.2 hPa NE 6.8 mph /  10.9 km/h 10.4 mph /  16.7 km/h 76 % 0.00 in /  0 mm
03:25 38.0 °F /  3.3 °C 31.1 °F /  -0.5 °C 29.57 in /  1001.2 hPa ENE 6.0 mph /  9.7 km/h 13.8 mph /  22.2 km/h 76 % 0.00 in /  0 mm
03:30 38.0 °F /  3.3 °C 30.8 °F /  -0.7 °C 29.57 in /  1001.2 hPa NE 3.1 mph /  5 km/h 9.2 mph /  14.8 km/h 75 % 0.00 in /  0 mm
03:35 37.9 °F /  3.3 °C 30.7 °F /  -0.7 °C 29.57 in /  1001.2 hPa ENE 3.4 mph /  5.5 km/h 9.2 mph /  14.8 km/h 75 % 0.00 in /  0 mm
03:40 37.9 °F /  3.3 °C 31.0 °F /  -0.6 °C 29.57 in /  1001.2 hPa NNE 3.8 mph /  6.1 km/h 8.1 mph /  13 km/h 76 % 0.00 in /  0 mm
03:46 37.9 °F /  3.3 °C 31.0 °F /  -0.6 °C 29.57 in /  1001.2 hPa ENE 3.5 mph /  5.6 km/h 6.9 mph /  11.1 km/h 76 % 0.00 in /  0 mm
03:51 37.7 °F /  3.2 °C 30.5 °F /  -0.8 °C 29.57 in /  1001.2 hPa NE 7.0 mph /  11.3 km/h 9.2 mph /  14.8 km/h 75 % 0.00 in /  0 mm
03:56 37.6 °F /  3.1 °C 29.7 °F /  -1.3 °C 29.57 in /  1001.2 hPa ENE 5.7 mph /  9.2 km/h 10.4 mph /  16.7 km/h 73 % 0.00 in /  0 mm
04:01 37.6 °F /  3.1 °C 30.1 °F /  -1.1 °C 29.58 in /  1001.6 hPa NE 4.3 mph /  6.9 km/h 6.0 mph /  9.7 km/h 74 % 0.00 in /  0 mm
04:06 37.6 °F /  3.1 °C 30.1 °F /  -1.1 °C 29.58 in /  1001.6 hPa NNE 7.5 mph /  12.1 km/h 11.5 mph /  18.5 km/h 74 % 0.00 in /  0 mm
04:11 37.5 °F /  3.1 °C 30.0 °F /  -1.1 °C 29.59 in /  1001.9 hPa NNE 7.1 mph /  11.4 km/h 11.5 mph /  18.5 km/h 74 % 0.00 in /  0 mm
04:16 37.5 °F /  3.1 °C 29.3 °F /  -1.5 °C 29.58 in /  1001.6 hPa NNE 8.9 mph /  14.3 km/h 13.8 mph /  22.2 km/h 72 % 0.00 in /  0 mm
04:21 37.5 °F /  3.1 °C 29.3 °F /  -1.5 °C 29.58 in /  1001.6 hPa NNE 5.0 mph /  8 km/h 9.2 mph /  14.8 km/h 72 % 0.00 in /  0 mm
04:26 37.5 °F /  3.1 °C 30.0 °F /  -1.1 °C 29.58 in /  1001.6 hPa NNE 7.4 mph /  11.9 km/h 12.0 mph /  19.3 km/h 74 % 0.00 in /  0 mm
04:31 37.5 °F /  3.1 °C 29.6 °F /  -1.3 °C 29.57 in /  1001.2 hPa NNE 9.1 mph /  14.6 km/h 15.0 mph /  24.1 km/h 73 % 0.00 in /  0 mm
04:36 37.2 °F /  2.9 °C 30.0 °F /  -1.1 °C 29.58 in /  1001.6 hPa NE 8.7 mph /  14 km/h 11.5 mph /  18.5 km/h 75 % 0.00 in /  0 mm
04:41 36.9 °F /  2.7 °C 30.4 °F /  -0.9 °C 29.58 in /  1001.6 hPa NNE 6.2 mph /  10 km/h 10.0 mph /  16.1 km/h 77 % 0.00 in /  0 mm
04:46 36.7 °F /  2.6 °C 30.8 °F /  -0.7 °C 29.57 in /  1001.2 hPa NE 5.6 mph /  9 km/h 8.1 mph /  13 km/h 79 % 0.00 in /  0 mm
04:51 36.2 °F /  2.3 °C 30.9 °F /  -0.6 °C 29.58 in /  1001.6 hPa NNE 8.7 mph /  14 km/h 11.5 mph /  18.5 km/h 81 % 0.00 in /  0 mm
04:56 35.7 °F /  2.1 °C 31.0 °F /  -0.6 °C 29.58 in /  1001.6 hPa NE 7.6 mph /  12.2 km/h 8.1 mph /  13 km/h 83 % 0.00 in /  0 mm
05:01 35.3 °F /  1.8 °C 31.2 °F /  -0.4 °C 29.57 in /  1001.2 hPa North 8.1 mph /  13 km/h 11.5 mph /  18.5 km/h 85 % 0.00 in /  0 mm
05:06 34.7 °F /  1.5 °C 30.9 °F /  -0.6 °C 29.58 in /  1001.6 hPa NNE 6.2 mph /  10 km/h 11.5 mph /  18.5 km/h 86 % 0.00 in /  0 mm
05:11 34.4 °F /  1.3 °C 31.2 °F /  -0.4 °C 29.60 in /  1002.3 hPa North 3.7 mph /  6 km/h 6.9 mph /  11.1 km/h 88 % 0.01 in /  0.25 mm
05:16 34.1 °F /  1.2 °C 31.2 °F /  -0.4 °C 29.59 in /  1001.9 hPa NNE 5.9 mph /  9.5 km/h 9.0 mph /  14.5 km/h 89 % 0.01 in /  0.25 mm
05:19 33.8 °F /  1 °C 30.9 °F /  -0.6 °C 29.59 in /  1001.9 hPa North 6.0 mph /  9.7 km/h 10.4 mph /  16.7 km/h 89 % 0.01 in /  0.25 mm
05:24 33.6 °F /  0.9 °C 31.0 °F /  -0.6 °C 29.58 in /  1001.6 hPa NNE 5.5 mph /  8.9 km/h 11.0 mph /  17.7 km/h 90 % 0.02 in /  0.51 mm
05:30 33.5 °F /  0.8 °C 30.9 °F /  -0.6 °C 29.57 in /  1001.2 hPa NNE 6.6 mph /  10.6 km/h 9.2 mph /  14.8 km/h 90 % 0.03 in /  0.76 mm
05:35 33.2 °F /  0.7 °C 30.9 °F /  -0.6 °C 29.55 in /  1000.6 hPa NE 6.8 mph /  10.9 km/h 12.7 mph /  20.4 km/h 91 % 0.04 in /  1.02 mm
05:40 33.1 °F /  0.6 °C 31.0 °F /  -0.6 °C 29.55 in /  1000.6 hPa NE 5.9 mph /  9.5 km/h 9.2 mph /  14.8 km/h 92 % 0.05 in /  1.27 mm
05:45 33.0 °F /  0.6 °C 30.9 °F /  -0.6 °C 29.55 in /  1000.6 hPa North 7.6 mph /  12.2 km/h 13.0 mph /  20.9 km/h 92 % 0.06 in /  1.52 mm
05:50 32.8 °F /  0.4 °C 30.7 °F /  -0.7 °C 29.55 in /  1000.6 hPa NNE 8.8 mph /  14.2 km/h 11.5 mph /  18.5 km/h 92 % 0.07 in /  1.78 mm
05:55 32.7 °F /  0.4 °C 30.9 °F /  -0.6 °C 29.55 in /  1000.6 hPa North 8.5 mph /  13.7 km/h 12.7 mph /  20.4 km/h 93 % 0.08 in /  2.03 mm
06:00 32.6 °F /  0.3 °C 30.8 °F /  -0.7 °C 29.54 in /  1000.2 hPa North 9.2 mph /  14.8 km/h 12.7 mph /  20.4 km/h 93 % 0.09 in /  2.29 mm
06:05 32.5 °F /  0.3 °C 30.7 °F /  -0.7 °C 29.54 in /  1000.2 hPa NNE 5.8 mph /  9.3 km/h 10.0 mph /  16.1 km/h 93 % 0.09 in /  2.29 mm
06:10 32.4 °F /  0.2 °C 30.9 °F /  -0.6 °C 29.54 in /  1000.2 hPa NNE 10.6 mph /  17.1 km/h 15.0 mph /  24.1 km/h 94 % 0.09 in /  2.29 mm
06:15 32.4 °F /  0.2 °C 30.9 °F /  -0.6 °C 29.55 in /  1000.6 hPa NNE 10.4 mph /  16.7 km/h 15.0 mph /  24.1 km/h 94 % 0.10 in /  2.54 mm
06:20 32.3 °F /  0.2 °C 30.8 °F /  -0.7 °C 29.55 in /  1000.6 hPa NE 10.4 mph /  16.7 km/h 12.7 mph /  20.4 km/h 94 % 0.10 in /  2.54 mm
06:25 32.2 °F /  0.1 °C 30.7 °F /  -0.7 °C 29.56 in /  1000.9 hPa NE 9.5 mph /  15.3 km/h 11.5 mph /  18.5 km/h 94 % 0.10 in /  2.54 mm
06:30 32.1 °F /  0.1 °C 30.6 °F /  -0.8 °C 29.55 in /  1000.6 hPa North 10.0 mph /  16.1 km/h 13.8 mph /  22.2 km/h 94 % 0.10 in /  2.54 mm
06:35 32.0 °F /  0 °C 30.5 °F /  -0.8 °C 29.55 in /  1000.6 hPa NNE 8.2 mph /  13.2 km/h 15.0 mph /  24.1 km/h 94 % 0.10 in /  2.54 mm
06:40 31.9 °F /  -0.1 °C 30.4 °F /  -0.9 °C 29.55 in /  1000.6 hPa North 6.5 mph /  10.5 km/h 13.8 mph /  22.2 km/h 94 % 0.09 in /  2.29 mm
06:45 31.7 °F /  -0.2 °C 30.2 °F /  -1 °C 29.55 in /  1000.6 hPa NNE 9.0 mph /  14.5 km/h 16.0 mph /  25.7 km/h 94 % 0.09 in /  2.29 mm
06:50 31.5 °F /  -0.3 °C 30.0 °F /  -1.1 °C 29.55 in /  1000.6 hPa NNE 8.2 mph /  13.2 km/h 11.5 mph /  18.5 km/h 94 % 0.09 in /  2.29 mm
06:51 31.5 °F /  -0.3 °C 30.0 °F /  -1.1 °C 29.55 in /  1000.6 hPa NE 10.7 mph /  17.2 km/h 16.0 mph /  25.7 km/h 94 % 0.09 in /  2.29 mm
06:56 31.5 °F /  -0.3 °C 30.2 °F /  -1 °C 29.55 in /  1000.6 hPa NNE 7.5 mph /  12.1 km/h 12.7 mph /  20.4 km/h 95 % 0.09 in /  2.29 mm
07:01 31.4 °F /  -0.3 °C 30.1 °F /  -1.1 °C 29.54 in /  1000.2 hPa NE 9.6 mph /  15.4 km/h 15.0 mph /  24.1 km/h 95 % 0.09 in /  2.29 mm
07:06 31.4 °F /  -0.3 °C 30.1 °F /  -1.1 °C 29.54 in /  1000.2 hPa NNW 8.7 mph /  14 km/h 12.0 mph /  19.3 km/h 95 % 0.09 in /  2.29 mm
07:11 31.4 °F /  -0.3 °C 30.1 °F /  -1.1 °C 29.53 in /  999.9 hPa NNE 7.8 mph /  12.6 km/h 11.5 mph /  18.5 km/h 95 % 0.10 in /  2.54 mm
07:16 31.4 °F /  -0.3 °C 30.1 °F /  -1.1 °C 29.53 in /  999.9 hPa NNE 8.1 mph /  13 km/h 13.8 mph /  22.2 km/h 95 % 0.10 in /  2.54 mm
07:21 31.2 °F /  -0.4 °C 29.9 °F /  -1.2 °C 29.53 in /  999.9 hPa North 6.1 mph /  9.8 km/h 13.8 mph /  22.2 km/h 95 % 0.10 in /  2.54 mm
07:26 31.1 °F /  -0.5 °C 29.8 °F /  -1.2 °C 29.52 in /  999.5 hPa North 8.2 mph /  13.2 km/h 12.7 mph /  20.4 km/h 95 % 0.10 in /  2.54 mm
07:31 31.0 °F /  -0.6 °C 29.7 °F /  -1.3 °C 29.52 in /  999.5 hPa NE 8.1 mph /  13 km/h 15.0 mph /  24.1 km/h 95 % 0.11 in /  2.79 mm
07:36 30.9 °F /  -0.6 °C 29.6 °F /  -1.3 °C 29.52 in /  999.5 hPa North 8.9 mph /  14.3 km/h 15.0 mph /  24.1 km/h 95 % 0.11 in /  2.79 mm
07:42 30.9 °F /  -0.6 °C 29.6 °F /  -1.3 °C 29.52 in /  999.5 hPa North 9.1 mph /  14.6 km/h 14.0 mph /  22.5 km/h 95 % 0.10 in /  2.54 mm
07:47 30.8 °F /  -0.7 °C 29.5 °F /  -1.4 °C 29.52 in /  999.5 hPa NNE 7.6 mph /  12.2 km/h 15.0 mph /  24.1 km/h 95 % 0.10 in /  2.54 mm
07:52 30.7 °F /  -0.7 °C 29.4 °F /  -1.4 °C 29.52 in /  999.5 hPa North 10.8 mph /  17.4 km/h 13.8 mph /  22.2 km/h 95 % 0.10 in /  2.54 mm
07:57 30.7 °F /  -0.7 °C 29.4 °F /  -1.4 °C 29.52 in /  999.5 hPa North 9.7 mph /  15.6 km/h 15.0 mph /  24.1 km/h 95 % 0.11 in /  2.79 mm
08:02 30.7 °F /  -0.7 °C 29.4 °F /  -1.4 °C 29.52 in /  999.5 hPa North 8.9 mph /  14.3 km/h 11.5 mph /  18.5 km/h 95 % 0.10 in /  2.54 mm
08:07 30.7 °F /  -0.7 °C 29.4 °F /  -1.4 °C 29.52 in /  999.5 hPa North 10.1 mph /  16.3 km/h 19.6 mph /  31.5 km/h 95 % 0.11 in /  2.79 mm
08:12 30.6 °F /  -0.8 °C 29.3 °F /  -1.5 °C 29.51 in /  999.2 hPa NW 8.9 mph /  14.3 km/h 12.7 mph /  20.4 km/h 95 % 0.11 in /  2.79 mm
08:17 30.6 °F /  -0.8 °C 29.3 °F /  -1.5 °C 29.51 in /  999.2 hPa NNE 11.3 mph /  18.2 km/h 15.0 mph /  24.1 km/h 95 % 0.11 in /  2.79 mm
08:22 30.5 °F /  -0.8 °C 29.5 °F /  -1.4 °C 29.51 in /  999.2 hPa North 7.9 mph /  12.7 km/h 19.6 mph /  31.5 km/h 96 % 0.11 in /  2.79 mm
08:27 30.6 °F /  -0.8 °C 29.6 °F /  -1.3 °C 29.51 in /  999.2 hPa North 12.0 mph /  19.3 km/h 14.0 mph /  22.5 km/h 96 % 0.11 in /  2.79 mm
08:32 30.6 °F /  -0.8 °C 29.6 °F /  -1.3 °C 29.50 in /  998.9 hPa North 8.9 mph /  14.3 km/h 13.8 mph /  22.2 km/h 96 % 0.11 in /  2.79 mm
08:37 30.7 °F /  -0.7 °C 29.7 °F /  -1.3 °C 29.50 in /  998.9 hPa NNE 8.2 mph /  13.2 km/h 13.8 mph /  22.2 km/h 96 % 0.11 in /  2.79 mm
08:42 30.8 °F /  -0.7 °C 29.8 °F /  -1.2 °C 29.49 in /  998.5 hPa NNE 10.7 mph /  17.2 km/h 16.1 mph /  25.9 km/h 96 % 0.11 in /  2.79 mm
08:47 30.9 °F /  -0.6 °C 29.9 °F /  -1.2 °C 29.48 in /  998.2 hPa NNW 8.4 mph /  13.5 km/h 15.0 mph /  24.1 km/h 96 % 0.11 in /  2.79 mm
08:52 31.0 °F /  -0.6 °C 30.0 °F /  -1.1 °C 29.48 in /  998.2 hPa NE 10.1 mph /  16.3 km/h 17.3 mph /  27.8 km/h 96 % 0.12 in /  3.05 mm
08:57 31.1 °F /  -0.5 °C 30.1 °F /  -1.1 °C 29.48 in /  998.2 hPa NNE 11.6 mph /  18.7 km/h 17.0 mph /  27.4 km/h 96 % 0.11 in /  2.79 mm
09:02 31.4 °F /  -0.3 °C 30.4 °F /  -0.9 °C 29.48 in /  998.2 hPa North 13.0 mph /  20.9 km/h 19.6 mph /  31.5 km/h 96 % 0.11 in /  2.79 mm
09:07 31.5 °F /  -0.3 °C 30.5 °F /  -0.8 °C 29.48 in /  998.2 hPa NE 10.3 mph /  16.6 km/h 16.1 mph /  25.9 km/h 96 % 0.11 in /  2.79 mm
09:12 31.8 °F /  -0.1 °C 30.8 °F /  -0.7 °C 29.48 in /  998.2 hPa NNE 10.7 mph /  17.2 km/h 25.3 mph /  40.7 km/h 96 % 0.11 in /  2.79 mm
09:18 32.0 °F /  0 °C 31.2 °F /  -0.4 °C 29.48 in /  998.2 hPa NNE 13.9 mph /  22.4 km/h 26.5 mph /  42.6 km/h 97 % 0.11 in /  2.79 mm
09:23 32.1 °F /  0.1 °C 31.3 °F /  -0.4 °C 29.47 in /  997.9 hPa NNE 12.7 mph /  20.4 km/h 19.6 mph /  31.5 km/h 97 % 0.11 in /  2.79 mm
09:28 32.2 °F /  0.1 °C 31.4 °F /  -0.3 °C 29.47 in /  997.9 hPa NNE 14.4 mph /  23.2 km/h 24.0 mph /  38.6 km/h 97 % 0.11 in /  2.79 mm
09:33 32.2 °F /  0.1 °C 31.4 °F /  -0.3 °C 29.48 in /  998.2 hPa NNE 13.9 mph /  22.4 km/h 22.0 mph /  35.4 km/h 97 % 0.11 in /  2.79 mm
09:38 32.2 °F /  0.1 °C 31.4 °F /  -0.3 °C 29.48 in /  998.2 hPa NE 12.7 mph /  20.4 km/h 19.6 mph /  31.5 km/h 97 % 0.11 in /  2.79 mm
09:43 32.3 °F /  0.2 °C 31.5 °F /  -0.3 °C 29.47 in /  997.9 hPa NNE 12.9 mph /  20.8 km/h 24.2 mph /  38.9 km/h 97 % 0.11 in /  2.79 mm
09:48 32.3 °F /  0.2 °C 31.5 °F /  -0.3 °C 29.47 in /  997.9 hPa North 13.5 mph /  21.7 km/h 26.5 mph /  42.6 km/h 97 % 0.11 in /  2.79 mm
09:53 32.3 °F /  0.2 °C 31.5 °F /  -0.3 °C 29.47 in /  997.9 hPa NNE 9.4 mph /  15.1 km/h 17.3 mph /  27.8 km/h 97 % 0.11 in /  2.79 mm
09:58 32.3 °F /  0.2 °C 31.5 °F /  -0.3 °C 29.47 in /  997.9 hPa North 11.6 mph /  18.7 km/h 19.0 mph /  30.6 km/h 97 % 0.11 in /  2.79 mm
10:03 32.2 °F /  0.1 °C 31.4 °F /  -0.3 °C 29.46 in /  997.5 hPa North 11.3 mph /  18.2 km/h 20.7 mph /  33.3 km/h 97 % 0.11 in /  2.79 mm
10:08 32.2 °F /  0.1 °C 31.4 °F /  -0.3 °C 29.46 in /  997.5 hPa North 12.0 mph /  19.3 km/h 23.0 mph /  37 km/h 97 % 0.00 in /  0 mm
10:13 32.1 °F /  0.1 °C 31.3 °F /  -0.4 °C 29.46 in /  997.5 hPa North 12.0 mph /  19.3 km/h 23.0 mph /  37 km/h 97 % 0.00 in /  0 mm
10:18 32.0 °F /  0 °C 31.2 °F /  -0.4 °C 29.46 in /  997.5 hPa North 15.0 mph /  24.1 km/h 23.0 mph /  37 km/h 97 % 0.00 in /  0 mm
10:23 31.8 °F /  -0.1 °C 31.0 °F /  -0.6 °C 29.46 in /  997.5 hPa NNE 13.0 mph /  20.9 km/h 21.0 mph /  33.8 km/h 97 % 0.00 in /  0 mm
10:28 31.7 °F /  -0.2 °C 30.9 °F /  -0.6 °C 29.46 in /  997.5 hPa North 16.0 mph /  25.7 km/h 29.0 mph /  46.7 km/h 97 % 0.00 in /  0 mm
10:33 31.5 °F /  -0.3 °C 30.7 °F /  -0.7 °C 29.46 in /  997.5 hPa North 15.0 mph /  24.1 km/h 23.0 mph /  37 km/h 97 % 0.00 in /  0 mm
10:38 31.3 °F /  -0.4 °C 30.6 °F /  -0.8 °C 29.47 in /  997.9 hPa North 15.0 mph /  24.1 km/h 24.0 mph /  38.6 km/h 97 % 0.00 in /  0 mm
10:43 31.2 °F /  -0.4 °C 30.4 °F /  -0.9 °C 29.46 in /  997.5 hPa North 13.0 mph /  20.9 km/h 20.0 mph /  32.2 km/h 97 % 0.00 in /  0 mm
10:48 31.2 °F /  -0.4 °C 30.4 °F /  -0.9 °C 29.45 in /  997.2 hPa North 14.0 mph /  22.5 km/h 22.0 mph /  35.4 km/h 97 % 0.01 in /  0.25 mm
10:53 30.9 °F /  -0.6 °C 30.2 °F /  -1 °C 29.45 in /  997.2 hPa North 10.0 mph /  16.1 km/h 23.0 mph /  37 km/h 97 % 0.00 in /  0 mm
10:58 30.6 °F /  -0.8 °C 29.9 °F /  -1.2 °C 29.46 in /  997.5 hPa NNW 12.3 mph /  19.8 km/h 23.0 mph /  37 km/h 97 % 0.04 in /  1.02 mm
11:03 30.5 °F /  -0.8 °C 29.8 °F /  -1.2 °C 29.46 in /  997.5 hPa North 8.1 mph /  13 km/h 13.8 mph /  22.2 km/h 97 % 0.04 in /  1.02 mm
11:09 30.4 °F /  -0.9 °C 29.7 °F /  -1.3 °C 29.46 in /  997.5 hPa WNW 9.5 mph /  15.3 km/h 18.4 mph /  29.6 km/h 97 % 0.04 in /  1.02 mm
11:14 30.3 °F /  -0.9 °C 29.6 °F /  -1.3 °C 29.47 in /  997.9 hPa NNE 7.9 mph /  12.7 km/h 12.7 mph /  20.4 km/h 97 % 0.03 in /  0.76 mm
11:19 30.1 °F /  -1.1 °C 29.4 °F /  -1.4 °C 29.47 in /  997.9 hPa NNW 11.6 mph /  18.7 km/h 23.0 mph /  37 km/h 97 % 0.03 in /  0.76 mm
11:24 29.9 °F /  -1.2 °C 29.2 °F /  -1.6 °C 29.46 in /  997.5 hPa North 9.7 mph /  15.6 km/h 26.5 mph /  42.6 km/h 97 % 0.04 in /  1.02 mm
11:29 29.7 °F /  -1.3 °C 29.0 °F /  -1.7 °C 29.46 in /  997.5 hPa NNW 9.5 mph /  15.3 km/h 15.0 mph /  24.1 km/h 97 % 0.03 in /  0.76 mm
11:34 29.6 °F /  -1.3 °C 28.9 °F /  -1.7 °C 29.45 in /  997.2 hPa North 12.0 mph /  19.3 km/h 19.6 mph /  31.5 km/h 97 % 0.03 in /  0.76 mm
11:39 29.4 °F /  -1.4 °C 28.7 °F /  -1.8 °C 29.45 in /  997.2 hPa North 9.5 mph /  15.3 km/h 15.0 mph /  24.1 km/h 97 % 0.04 in /  1.02 mm
11:44 29.2 °F /  -1.6 °C 28.2 °F /  -2.1 °C 29.46 in /  997.5 hPa North 9.8 mph /  15.8 km/h 19.6 mph /  31.5 km/h 96 % 0.04 in /  1.02 mm
11:49 29.1 °F /  -1.6 °C 28.4 °F /  -2 °C 29.45 in /  997.2 hPa NNW 9.8 mph /  15.8 km/h 19.6 mph /  31.5 km/h 97 % 0.03 in /  0.76 mm
11:54 28.9 °F /  -1.7 °C 28.2 °F /  -2.1 °C 29.45 in /  997.2 hPa North 11.6 mph /  18.7 km/h 23.0 mph /  37 km/h 97 % 0.03 in /  0.76 mm
11:59 28.7 °F /  -1.8 °C 28.0 °F /  -2.2 °C 29.45 in /  997.2 hPa NNE 12.4 mph /  20 km/h 21.9 mph /  35.2 km/h 97 % 0.04 in /  1.02 mm
12:04 28.5 °F /  -1.9 °C 27.5 °F /  -2.5 °C 29.44 in /  996.8 hPa NNE 14.1 mph /  22.7 km/h 17.0 mph /  27.4 km/h 96 % 0.04 in /  1.02 mm
12:09 28.3 °F /  -2.1 °C 27.3 °F /  -2.6 °C 29.45 in /  997.2 hPa NE 11.1 mph /  17.9 km/h 19.6 mph /  31.5 km/h 96 % 0.03 in /  0.76 mm
12:14 28.3 °F /  -2.1 °C 27.3 °F /  -2.6 °C 29.45 in /  997.2 hPa NNW 10.0 mph /  16.1 km/h 19.6 mph /  31.5 km/h 96 % 0.03 in /  0.76 mm
12:19 28.2 °F /  -2.1 °C 27.5 °F /  -2.5 °C 29.45 in /  997.2 hPa North 14.1 mph /  22.7 km/h 23.0 mph /  37 km/h 97 % 0.02 in /  0.51 mm
12:25 28.0 °F /  -2.2 °C 27.0 °F /  -2.8 °C 29.46 in /  997.5 hPa NNW 16.9 mph /  27.2 km/h 24.2 mph /  38.9 km/h 96 % 0.03 in /  0.76 mm
12:30 27.8 °F /  -2.3 °C 26.8 °F /  -2.9 °C 29.45 in /  997.2 hPa NW 11.0 mph /  17.7 km/h 18.4 mph /  29.6 km/h 96 % 0.03 in /  0.76 mm
12:35 27.8 °F /  -2.3 °C 26.8 °F /  -2.9 °C 29.46 in /  997.5 hPa NW 7.6 mph /  12.2 km/h 18.4 mph /  29.6 km/h 96 % 0.02 in /  0.51 mm
12:40 27.8 °F /  -2.3 °C 26.8 °F /  -2.9 °C 29.47 in /  997.9 hPa North 7.5 mph /  12.1 km/h 18.4 mph /  29.6 km/h 96 % 0.02 in /  0.51 mm
12:45 27.7 °F /  -2.4 °C 26.7 °F /  -2.9 °C 29.47 in /  997.9 hPa North 11.0 mph /  17.7 km/h 22.0 mph /  35.4 km/h 96 % 0.02 in /  0.51 mm
12:50 27.5 °F /  -2.5 °C 26.5 °F /  -3.1 °C 29.47 in /  997.9 hPa NNW 11.3 mph /  18.2 km/h 20.7 mph /  33.3 km/h 96 % 0.02 in /  0.51 mm
12:55 27.3 °F /  -2.6 °C 26.3 °F /  -3.2 °C 29.47 in /  997.9 hPa NNW 11.0 mph /  17.7 km/h 13.0 mph /  20.9 km/h 96 % 0.02 in /  0.51 mm
13:00 27.2 °F /  -2.7 °C 26.2 °F /  -3.2 °C 29.48 in /  998.2 hPa NW 8.4 mph /  13.5 km/h 12.7 mph /  20.4 km/h 96 % 0.02 in /  0.51 mm
13:05 27.1 °F /  -2.7 °C 26.1 °F /  -3.3 °C 29.48 in /  998.2 hPa North 12.5 mph /  20.1 km/h 23.0 mph /  37 km/h 96 % 0.02 in /  0.51 mm
13:10 27.0 °F /  -2.8 °C 26.0 °F /  -3.3 °C 29.49 in /  998.5 hPa NNW 8.1 mph /  13 km/h 12.7 mph /  20.4 km/h 96 % 0.02 in /  0.51 mm
13:15 27.0 °F /  -2.8 °C 26.0 °F /  -3.3 °C 29.49 in /  998.5 hPa WNW 6.9 mph /  11.1 km/h 11.5 mph /  18.5 km/h 96 % 0.02 in /  0.51 mm
13:20 26.9 °F /  -2.8 °C 25.9 °F /  -3.4 °C 29.49 in /  998.5 hPa NW 9.2 mph /  14.8 km/h 16.1 mph /  25.9 km/h 96 % 0.02 in /  0.51 mm
13:25 26.9 °F /  -2.8 °C 25.9 °F /  -3.4 °C 29.50 in /  998.9 hPa NW 11.9 mph /  19.2 km/h 18.4 mph /  29.6 km/h 96 % 0.01 in /  0.25 mm
13:30 26.7 °F /  -2.9 °C 25.7 °F /  -3.5 °C 29.50 in /  998.9 hPa NNW 10.1 mph /  16.3 km/h 17.3 mph /  27.8 km/h 96 % 0.01 in /  0.25 mm
13:35 26.5 °F /  -3.1 °C 25.5 °F /  -3.6 °C 29.50 in /  998.9 hPa NNW 12.0 mph /  19.3 km/h 15.0 mph /  24.1 km/h 96 % 0.01 in /  0.25 mm
13:40 26.3 °F /  -3.2 °C 25.3 °F /  -3.7 °C 29.50 in /  998.9 hPa NW 10.1 mph /  16.3 km/h 18.4 mph /  29.6 km/h 96 % 0.01 in /  0.25 mm
13:45 26.2 °F /  -3.2 °C 25.2 °F /  -3.8 °C 29.51 in /  999.2 hPa North 7.6 mph /  12.2 km/h 15.0 mph /  24.1 km/h 96 % 0.01 in /  0.25 mm
13:50 26.2 °F /  -3.2 °C 25.2 °F /  -3.8 °C 29.51 in /  999.2 hPa NNE 9.9 mph /  15.9 km/h 18.4 mph /  29.6 km/h 96 % 0.01 in /  0.25 mm
13:55 26.2 °F /  -3.2 °C 25.2 °F /  -3.8 °C 29.52 in /  999.5 hPa NW 4.4 mph /  7.1 km/h 13.8 mph /  22.2 km/h 96 % 0.00 in /  0 mm
14:00 26.1 °F /  -3.3 °C 25.1 °F /  -3.8 °C 29.52 in /  999.5 hPa NNW 9.7 mph /  15.6 km/h 17.3 mph /  27.8 km/h 96 % 0.00 in /  0 mm
14:05 26.0 °F /  -3.3 °C 25.0 °F /  -3.9 °C 29.53 in /  999.9 hPa North 6.9 mph /  11.1 km/h 15.0 mph /  24.1 km/h 96 % 0.00 in /  0 mm
14:10 25.9 °F /  -3.4 °C 24.9 °F /  -3.9 °C 29.53 in /  999.9 hPa North 5.4 mph /  8.7 km/h 13.8 mph /  22.2 km/h 96 % 0.00 in /  0 mm
14:15 25.8 °F /  -3.4 °C 24.8 °F /  -4 °C 29.53 in /  999.9 hPa NW 8.1 mph /  13 km/h 13.8 mph /  22.2 km/h 96 % 0.00 in /  0 mm
14:20 25.6 °F /  -3.6 °C 24.4 °F /  -4.2 °C 29.54 in /  1000.2 hPa NNW 6.5 mph /  10.5 km/h 17.3 mph /  27.8 km/h 95 % 0.00 in /  0 mm
14:26 25.4 °F /  -3.7 °C 24.2 °F /  -4.3 °C 29.53 in /  999.9 hPa WNW 6.0 mph /  9.7 km/h 10.0 mph /  16.1 km/h 95 % 0.00 in /  0 mm
14:31 25.3 °F /  -3.7 °C 24.1 °F /  -4.4 °C 29.54 in /  1000.2 hPa NNW 11.7 mph /  18.8 km/h 19.6 mph /  31.5 km/h 95 % 0.00 in /  0 mm
14:36 25.2 °F /  -3.8 °C 24.0 °F /  -4.4 °C 29.54 in /  1000.2 hPa NNW 10.7 mph /  17.2 km/h 20.0 mph /  32.2 km/h 95 % 0.00 in /  0 mm
14:41 25.1 °F /  -3.8 °C 23.9 °F /  -4.5 °C 29.54 in /  1000.2 hPa NNW 11.6 mph /  18.7 km/h 21.0 mph /  33.8 km/h 95 % 0.00 in /  0 mm
14:46 24.9 °F /  -3.9 °C 23.7 °F /  -4.6 °C 29.54 in /  1000.2 hPa NW 10.4 mph /  16.7 km/h 26.0 mph /  41.8 km/h 95 % 0.00 in /  0 mm
14:51 24.8 °F /  -4 °C 23.6 °F /  -4.7 °C 29.54 in /  1000.2 hPa North 11.4 mph /  18.3 km/h 18.4 mph /  29.6 km/h 95 % 0.00 in /  0 mm
14:56 24.8 °F /  -4 °C 23.6 °F /  -4.7 °C 29.55 in /  1000.6 hPa North 10.4 mph /  16.7 km/h 23.0 mph /  37 km/h 95 % 0.00 in /  0 mm
15:01 24.8 °F /  -4 °C 23.6 °F /  -4.7 °C 29.55 in /  1000.6 hPa North 9.7 mph /  15.6 km/h 18.4 mph /  29.6 km/h 95 % 0.00 in /  0 mm
15:06 24.8 °F /  -4 °C 23.6 °F /  -4.7 °C 29.56 in /  1000.9 hPa NNW 6.5 mph /  10.5 km/h 13.0 mph /  20.9 km/h 95 % 0.00 in /  0 mm
15:11 24.8 °F /  -4 °C 23.6 °F /  -4.7 °C 29.57 in /  1001.2 hPa NW 10.7 mph /  17.2 km/h 19.6 mph /  31.5 km/h 95 % 0.00 in /  0 mm
15:16 24.8 °F /  -4 °C 23.6 °F /  -4.7 °C 29.57 in /  1001.2 hPa NW 8.4 mph /  13.5 km/h 19.6 mph /  31.5 km/h 95 % 0.00 in /  0 mm
15:21 24.7 °F /  -4.1 °C 23.5 °F /  -4.7 °C 29.58 in /  1001.6 hPa NNW 9.9 mph /  15.9 km/h 18.4 mph /  29.6 km/h 95 % 0.00 in /  0 mm
15:26 24.6 °F /  -4.1 °C 23.4 °F /  -4.8 °C 29.58 in /  1001.6 hPa NW 11.2 mph /  18 km/h 19.6 mph /  31.5 km/h 95 % 0.00 in /  0 mm
15:31 24.5 °F /  -4.2 °C 23.3 °F /  -4.8 °C 29.58 in /  1001.6 hPa NW 8.3 mph /  13.4 km/h 23.0 mph /  37 km/h 95 % 0.00 in /  0 mm
15:36 24.5 °F /  -4.2 °C 23.3 °F /  -4.8 °C 29.59 in /  1001.9 hPa NNW 6.7 mph /  10.8 km/h 15.0 mph /  24.1 km/h 95 % 0.00 in /  0 mm
15:41 24.4 °F /  -4.2 °C 23.2 °F /  -4.9 °C 29.59 in /  1001.9 hPa North 9.7 mph /  15.6 km/h 16.1 mph /  25.9 km/h 95 % 0.00 in /  0 mm
15:46 24.4 °F /  -4.2 °C 22.9 °F /  -5.1 °C 29.59 in /  1001.9 hPa NNW 7.7 mph /  12.4 km/h 13.8 mph /  22.2 km/h 94 % 0.00 in /  0 mm
15:51 24.3 °F /  -4.3 °C 22.8 °F /  -5.1 °C 29.60 in /  1002.3 hPa NNE 11.1 mph /  17.9 km/h 15.0 mph /  24.1 km/h 94 % 0.00 in /  0 mm
15:56 24.2 °F /  -4.3 °C 22.7 °F /  -5.2 °C 29.60 in /  1002.3 hPa NW 8.8 mph /  14.2 km/h 16.1 mph /  25.9 km/h 94 % 0.00 in /  0 mm
16:01 24.2 °F /  -4.3 °C 22.7 °F /  -5.2 °C 29.60 in /  1002.3 hPa NNW 7.2 mph /  11.6 km/h 15.0 mph /  24.1 km/h 94 % 0.00 in /  0 mm
16:06 24.2 °F /  -4.3 °C 22.7 °F /  -5.2 °C 29.61 in /  1002.6 hPa NNW 8.6 mph /  13.8 km/h 15.0 mph /  24.1 km/h 94 % 0.00 in /  0 mm
16:11 24.2 °F /  -4.3 °C 22.7 °F /  -5.2 °C 29.61 in /  1002.6 hPa NW 7.7 mph /  12.4 km/h 12.7 mph /  20.4 km/h 94 % 0.00 in /  0 mm
16:16 24.2 °F /  -4.3 °C 22.7 °F /  -5.2 °C 29.61 in /  1002.6 hPa NNW 5.8 mph /  9.3 km/h 8.1 mph /  13 km/h 94 % 0.00 in /  0 mm
16:22 24.2 °F /  -4.3 °C 22.7 °F /  -5.2 °C 29.61 in /  1002.6 hPa NNW 7.8 mph /  12.6 km/h 15.0 mph /  24.1 km/h 94 % 0.00 in /  0 mm
16:27 24.3 °F /  -4.3 °C 22.8 °F /  -5.1 °C 29.62 in /  1002.9 hPa North 8.2 mph /  13.2 km/h 16.0 mph /  25.7 km/h 94 % 0.00 in /  0 mm
16:32 24.2 °F /  -4.3 °C 22.7 °F /  -5.2 °C 29.63 in /  1003.3 hPa NW 10.1 mph /  16.3 km/h 20.7 mph /  33.3 km/h 94 % 0.00 in /  0 mm
16:37 24.1 °F /  -4.4 °C 22.6 °F /  -5.2 °C 29.64 in /  1003.6 hPa NW 13.7 mph /  22 km/h 25.3 mph /  40.7 km/h 94 % 0.00 in /  0 mm
16:42 23.9 °F /  -4.5 °C 22.4 °F /  -5.3 °C 29.64 in /  1003.6 hPa WNW 11.6 mph /  18.7 km/h 20.7 mph /  33.3 km/h 94 % 0.00 in /  0 mm
16:47 23.8 °F /  -4.6 °C 22.1 °F /  -5.5 °C 29.65 in /  1003.9 hPa NW 9.1 mph /  14.6 km/h 18.4 mph /  29.6 km/h 93 % 0.00 in /  0 mm
16:52 23.6 °F /  -4.7 °C 21.9 °F /  -5.6 °C 29.65 in /  1003.9 hPa NW 9.7 mph /  15.6 km/h 18.4 mph /  29.6 km/h 93 % 0.00 in /  0 mm
16:57 23.5 °F /  -4.7 °C 21.5 °F /  -5.8 °C 29.66 in /  1004.3 hPa WNW 9.2 mph /  14.8 km/h 19.6 mph /  31.5 km/h 92 % 0.00 in /  0 mm
17:02 23.4 °F /  -4.8 °C 21.4 °F /  -5.9 °C 29.66 in /  1004.3 hPa WNW 3.3 mph /  5.3 km/h 17.3 mph /  27.8 km/h 92 % 0.00 in /  0 mm
17:07 23.3 °F /  -4.8 °C 21.3 °F /  -5.9 °C 29.66 in /  1004.3 hPa West 6.0 mph /  9.7 km/h 19.6 mph /  31.5 km/h 92 % 0.00 in /  0 mm
17:12 23.3 °F /  -4.8 °C 21.3 °F /  -5.9 °C 29.67 in /  1004.6 hPa WNW 11.8 mph /  19 km/h 20.0 mph /  32.2 km/h 92 % 0.00 in /  0 mm
17:17 23.2 °F /  -4.9 °C 21.0 °F /  -6.1 °C 29.67 in /  1004.6 hPa WNW 4.8 mph /  7.7 km/h 13.8 mph /  22.2 km/h 91 % 0.00 in /  0 mm
17:23 23.1 °F /  -4.9 °C 20.9 °F /  -6.2 °C 29.67 in /  1004.6 hPa NW 7.2 mph /  11.6 km/h 11.5 mph /  18.5 km/h 91 % 0.00 in /  0 mm
17:28 23.1 °F /  -4.9 °C 20.9 °F /  -6.2 °C 29.67 in /  1004.6 hPa NNW 3.8 mph /  6.1 km/h 8.1 mph /  13 km/h 91 % 0.00 in /  0 mm
17:33 23.1 °F /  -4.9 °C 20.9 °F /  -6.2 °C 29.67 in /  1004.6 hPa WNW 7.3 mph /  11.7 km/h 12.0 mph /  19.3 km/h 91 % 0.00 in /  0 mm
17:38 23.1 °F /  -4.9 °C 20.6 °F /  -6.3 °C 29.67 in /  1004.6 hPa NW 6.0 mph /  9.7 km/h 11.5 mph /  18.5 km/h 90 % 0.00 in /  0 mm
17:43 23.1 °F /  -4.9 °C 20.6 °F /  -6.3 °C 29.68 in /  1005 hPa West 7.5 mph /  12.1 km/h 16.1 mph /  25.9 km/h 90 % 0.00 in /  0 mm
18:02 23.1 °F /  -4.9 °C 18.7 °F /  -7.4 °C 29.69 in /  1005.3 hPa NW 8.5 mph /  13.7 km/h 24.2 mph /  38.9 km/h 83 % 0.00 in /  0 mm
18:07 23.1 °F /  -4.9 °C 18.7 °F /  -7.4 °C 29.70 in /  1005.6 hPa NNW 9.9 mph /  15.9 km/h 15.0 mph /  24.1 km/h 83 % 0.00 in /  0 mm
18:12 23.0 °F /  -5 °C 18.3 °F /  -7.6 °C 29.70 in /  1005.6 hPa WNW 7.9 mph /  12.7 km/h 13.8 mph /  22.2 km/h 82 % 0.00 in /  0 mm
18:17 23.0 °F /  -5 °C 18.6 °F /  -7.4 °C 29.71 in /  1006 hPa NW 6.8 mph /  10.9 km/h 11.5 mph /  18.5 km/h 83 % 0.00 in /  0 mm
18:22 23.0 °F /  -5 °C 18.6 °F /  -7.4 °C 29.71 in /  1006 hPa NNW 5.3 mph /  8.5 km/h 12.7 mph /  20.4 km/h 83 % 0.00 in /  0 mm
18:27 23.0 °F /  -5 °C 18.3 °F /  -7.6 °C 29.72 in /  1006.3 hPa WNW 10.3 mph /  16.6 km/h 19.6 mph /  31.5 km/h 82 % 0.00 in /  0 mm
18:33 23.1 °F /  -4.9 °C 18.1 °F /  -7.7 °C 29.72 in /  1006.3 hPa WNW 7.1 mph /  11.4 km/h 15.0 mph /  24.1 km/h 81 % 0.00 in /  0 mm
18:38 23.1 °F /  -4.9 °C 18.1 °F /  -7.7 °C 29.72 in /  1006.3 hPa WNW 6.8 mph /  10.9 km/h 12.7 mph /  20.4 km/h 81 % 0.00 in /  0 mm
18:43 23.0 °F /  -5 °C 17.7 °F /  -7.9 °C 29.73 in /  1006.7 hPa WNW 6.7 mph /  10.8 km/h 16.1 mph /  25.9 km/h 80 % 0.00 in /  0 mm
18:48 23.0 °F /  -5 °C 17.2 °F /  -8.2 °C 29.74 in /  1007 hPa NW 10.3 mph /  16.6 km/h 10.3 mph /  16.6 km/h 78 % 0.00 in /  0 mm
18:53 22.9 °F /  -5.1 °C 16.8 °F /  -8.4 °C 29.74 in /  1007 hPa NW 6.0 mph /  9.7 km/h 20.0 mph /  32.2 km/h 77 % 0.00 in /  0 mm
18:58 22.7 °F /  -5.2 °C 16.0 °F /  -8.9 °C 29.75 in /  1007.3 hPa West 8.0 mph /  12.9 km/h 17.3 mph /  27.8 km/h 75 % 0.00 in /  0 mm
19:03 22.6 °F /  -5.2 °C 15.9 °F /  -8.9 °C 29.75 in /  1007.3 hPa NNW 10.3 mph /  16.6 km/h 15.0 mph /  24.1 km/h 75 % 0.00 in /  0 mm
19:08 22.5 °F /  -5.3 °C 15.5 °F /  -9.2 °C 29.76 in /  1007.7 hPa WNW 14.9 mph /  24 km/h 20.0 mph /  32.2 km/h 74 % 0.00 in /  0 mm
19:14 22.4 °F /  -5.3 °C 15.7 °F /  -9.1 °C 29.76 in /  1007.7 hPa NW 6.9 mph /  11.1 km/h 17.3 mph /  27.8 km/h 75 % 0.00 in /  0 mm
19:19 22.2 °F /  -5.4 °C 15.5 °F /  -9.2 °C 29.77 in /  1008 hPa NNW 10.1 mph /  16.3 km/h 16.1 mph /  25.9 km/h 75 % 0.00 in /  0 mm
19:24 22.1 °F /  -5.5 °C 15.4 °F /  -9.2 °C 29.77 in /  1008 hPa WNW 12.1 mph /  19.5 km/h 19.6 mph /  31.5 km/h 75 % 0.00 in /  0 mm
19:29 22.0 °F /  -5.6 °C 15.0 °F /  -9.4 °C 29.78 in /  1008.4 hPa NNW 4.6 mph /  7.4 km/h 12.0 mph /  19.3 km/h 74 % 0.00 in /  0 mm
19:34 21.8 °F /  -5.7 °C 14.8 °F /  -9.6 °C 29.78 in /  1008.4 hPa NW 8.4 mph /  13.5 km/h 14.0 mph /  22.5 km/h 74 % 0.00 in /  0 mm
19:39 21.6 °F /  -5.8 °C 14.6 °F /  -9.7 °C 29.79 in /  1008.7 hPa NW 7.8 mph /  12.6 km/h 13.0 mph /  20.9 km/h 74 % 0.00 in /  0 mm
19:44 21.4 °F /  -5.9 °C 14.1 °F /  -9.9 °C 29.80 in /  1009 hPa WNW 12.1 mph /  19.5 km/h 13.0 mph /  20.9 km/h 73 % 0.00 in /  0 mm
19:49 21.1 °F /  -6.1 °C 13.5 °F /  -10.3 °C 29.80 in /  1009 hPa NNW 10.9 mph /  17.5 km/h 17.3 mph /  27.8 km/h 72 % 0.00 in /  0 mm
19:54 20.9 °F /  -6.2 °C 13.3 °F /  -10.4 °C 29.80 in /  1009 hPa NW 11.2 mph /  18 km/h 26.5 mph /  42.6 km/h 72 % 0.00 in /  0 mm
19:59 20.7 °F /  -6.3 °C 13.4 °F /  -10.3 °C 29.81 in /  1009.4 hPa West 9.0 mph /  14.5 km/h 16.1 mph /  25.9 km/h 73 % 0.00 in /  0 mm
20:05 20.5 °F /  -6.4 °C 13.2 °F /  -10.4 °C 29.82 in /  1009.7 hPa WSW 6.7 mph /  10.8 km/h 17.0 mph /  27.4 km/h 73 % 0.00 in /  0 mm
20:10 20.4 °F /  -6.4 °C 12.5 °F /  -10.8 °C 29.82 in /  1009.7 hPa NW 13.0 mph /  20.9 km/h 26.5 mph /  42.6 km/h 71 % 0.00 in /  0 mm
20:15 20.2 °F /  -6.6 °C 12.6 °F /  -10.8 °C 29.83 in /  1010 hPa WNW 8.4 mph /  13.5 km/h 19.6 mph /  31.5 km/h 72 % 0.00 in /  0 mm
20:20 20.1 °F /  -6.6 °C 12.8 °F /  -10.7 °C 29.83 in /  1010 hPa NNW 7.0 mph /  11.3 km/h 19.6 mph /  31.5 km/h 73 % 0.00 in /  0 mm
20:26 20.0 °F /  -6.7 °C 12.4 °F /  -10.9 °C 29.84 in /  1010.4 hPa SW 5.7 mph /  9.2 km/h 11.5 mph /  18.5 km/h 72 % 0.00 in /  0 mm
20:31 19.8 °F /  -6.8 °C 12.5 °F /  -10.8 °C 29.85 in /  1010.7 hPa NW 10.1 mph /  16.3 km/h 16.0 mph /  25.7 km/h 73 % 0.00 in /  0 mm
20:36 19.8 °F /  -6.8 °C 11.6 °F /  -11.3 °C 29.85 in /  1010.7 hPa WNW 6.9 mph /  11.1 km/h 16.1 mph /  25.9 km/h 70 % 0.00 in /  0 mm
20:41 19.7 °F /  -6.8 °C 11.8 °F /  -11.2 °C 29.86 in /  1011.1 hPa WNW 8.7 mph /  14 km/h 16.1 mph /  25.9 km/h 71 % 0.00 in /  0 mm
20:46 19.6 °F /  -6.9 °C 11.7 °F /  -11.3 °C 29.86 in /  1011.1 hPa NNW 13.5 mph /  21.7 km/h 19.6 mph /  31.5 km/h 71 % 0.00 in /  0 mm
20:48 19.6 °F /  -6.9 °C 11.7 °F /  -11.3 °C 29.86 in /  1011.1 hPa West 8.7 mph /  14 km/h 18.0 mph /  29 km/h 71 % 0.00 in /  0 mm
20:53 19.5 °F /  -6.9 °C 11.3 °F /  -11.5 °C 29.86 in /  1011.1 hPa NNW 9.2 mph /  14.8 km/h 17.3 mph /  27.8 km/h 70 % 0.00 in /  0 mm
20:58 19.4 °F /  -7 °C 11.5 °F /  -11.4 °C 29.87 in /  1011.4 hPa NW 8.6 mph /  13.8 km/h 20.0 mph /  32.2 km/h 71 % 0.00 in /  0 mm
21:03 19.4 °F /  -7 °C 11.5 °F /  -11.4 °C 29.88 in /  1011.7 hPa West 8.7 mph /  14 km/h 21.9 mph /  35.2 km/h 71 % 0.00 in /  0 mm
21:08 19.3 °F /  -7.1 °C 11.7 °F /  -11.3 °C 29.88 in /  1011.7 hPa NW 9.2 mph /  14.8 km/h 17.3 mph /  27.8 km/h 72 % 0.00 in /  0 mm
21:13 19.3 °F /  -7.1 °C 11.4 °F /  -11.4 °C 29.89 in /  1012.1 hPa WNW 11.4 mph /  18.3 km/h 18.4 mph /  29.6 km/h 71 % 0.00 in /  0 mm
21:18 19.2 °F /  -7.1 °C 11.0 °F /  -11.7 °C 29.89 in /  1012.1 hPa NW 11.0 mph /  17.7 km/h 23.0 mph /  37 km/h 70 % 0.00 in /  0 mm
21:23 19.1 °F /  -7.2 °C 11.2 °F /  -11.6 °C 29.90 in /  1012.4 hPa West 7.2 mph /  11.6 km/h 13.8 mph /  22.2 km/h 71 % 0.00 in /  0 mm
21:25 19.1 °F /  -7.2 °C 11.2 °F /  -11.6 °C 29.90 in /  1012.4 hPa NNW 10.2 mph /  16.4 km/h 19.6 mph /  31.5 km/h 71 % 0.00 in /  0 mm
21:30 19.0 °F /  -7.2 °C 10.8 °F /  -11.8 °C 29.90 in /  1012.4 hPa North 9.4 mph /  15.1 km/h 19.6 mph /  31.5 km/h 70 % 0.00 in /  0 mm
21:35 18.9 °F /  -7.3 °C 10.7 °F /  -11.8 °C 29.91 in /  1012.8 hPa WNW 8.0 mph /  12.9 km/h 13.8 mph /  22.2 km/h 70 % 0.00 in /  0 mm
21:40 18.9 °F /  -7.3 °C 10.7 °F /  -11.8 °C 29.91 in /  1012.8 hPa SW 8.1 mph /  13 km/h 18.4 mph /  29.6 km/h 70 % 0.00 in /  0 mm
21:45 18.8 °F /  -7.3 °C 10.6 °F /  -11.9 °C 29.91 in /  1012.8 hPa North 9.9 mph /  15.9 km/h 20.0 mph /  32.2 km/h 70 % 0.00 in /  0 mm
21:50 18.8 °F /  -7.3 °C 10.6 °F /  -11.9 °C 29.92 in /  1013.1 hPa WNW 10.9 mph /  17.5 km/h 19.6 mph /  31.5 km/h 70 % 0.00 in /  0 mm
21:55 18.7 °F /  -7.4 °C 10.5 °F /  -11.9 °C 29.92 in /  1013.1 hPa NW 8.4 mph /  13.5 km/h 19.6 mph /  31.5 km/h 70 % 0.00 in /  0 mm
21:57 18.7 °F /  -7.4 °C 10.9 °F /  -11.7 °C 29.92 in /  1013.1 hPa NNW 10.5 mph /  16.9 km/h 17.0 mph /  27.4 km/h 71 % 0.00 in /  0 mm
22:02 18.6 °F /  -7.4 °C 10.8 °F /  -11.8 °C 29.93 in /  1013.4 hPa NW 8.6 mph /  13.8 km/h 19.6 mph /  31.5 km/h 71 % 0.00 in /  0 mm
22:07 18.7 °F /  -7.4 °C 10.5 °F /  -11.9 °C 29.94 in /  1013.8 hPa NW 6.4 mph /  10.3 km/h 12.0 mph /  19.3 km/h 70 % 0.00 in /  0 mm
22:12 18.6 °F /  -7.4 °C 10.8 °F /  -11.8 °C 29.94 in /  1013.8 hPa NW 7.3 mph /  11.7 km/h 17.3 mph /  27.8 km/h 71 % 0.00 in /  0 mm
22:17 18.6 °F /  -7.4 °C 10.4 °F /  -12 °C 29.95 in /  1014.1 hPa WNW 5.5 mph /  8.9 km/h 15.0 mph /  24.1 km/h 70 % 0.00 in /  0 mm
22:22 18.6 °F /  -7.4 °C 10.8 °F /  -11.8 °C 29.95 in /  1014.1 hPa NW 7.2 mph /  11.6 km/h 12.7 mph /  20.4 km/h 71 % 0.00 in /  0 mm
22:27 18.6 °F /  -7.4 °C 10.4 °F /  -12 °C 29.95 in /  1014.1 hPa NW 8.3 mph /  13.4 km/h 13.8 mph /  22.2 km/h 70 % 0.00 in /  0 mm
22:32 18.5 °F /  -7.5 °C 10.3 °F /  -12.1 °C 29.96 in /  1014.4 hPa WNW 6.4 mph /  10.3 km/h 19.6 mph /  31.5 km/h 70 % 0.00 in /  0 mm
22:37 18.5 °F /  -7.5 °C 10.3 °F /  -12.1 °C 29.96 in /  1014.4 hPa NNW 11.4 mph /  18.3 km/h 15.0 mph /  24.1 km/h 70 % 0.00 in /  0 mm
22:38 18.5 °F /  -7.5 °C 10.3 °F /  -12.1 °C 29.96 in /  1014.4 hPa NW 11.2 mph /  18 km/h 16.1 mph /  25.9 km/h 70 % 0.00 in /  0 mm
22:43 18.5 °F /  -7.5 °C 10.0 °F /  -12.2 °C 29.96 in /  1014.4 hPa WNW 8.8 mph /  14.2 km/h 15.0 mph /  24.1 km/h 69 % 0.00 in /  0 mm
22:48 18.5 °F /  -7.5 °C 10.3 °F /  -12.1 °C 29.97 in /  1014.8 hPa NW 6.8 mph /  10.9 km/h 10.0 mph /  16.1 km/h 70 % 0.00 in /  0 mm
22:53 18.5 °F /  -7.5 °C 10.3 °F /  -12.1 °C 29.97 in /  1014.8 hPa West 8.1 mph /  13 km/h 18.0 mph /  29 km/h 70 % 0.00 in /  0 mm
22:58 18.6 °F /  -7.4 °C 10.4 °F /  -12 °C 29.97 in /  1014.8 hPa NNW 6.7 mph /  10.8 km/h 11.5 mph /  18.5 km/h 70 % 0.00 in /  0 mm
23:03 18.6 °F /  -7.4 °C 10.1 °F /  -12.2 °C 29.98 in /  1015.1 hPa NW 8.3 mph /  13.4 km/h 12.0 mph /  19.3 km/h 69 % 0.00 in /  0 mm
23:08 18.6 °F /  -7.4 °C 10.4 °F /  -12 °C 29.98 in /  1015.1 hPa WNW 4.2 mph /  6.8 km/h 16.1 mph /  25.9 km/h 70 % 0.00 in /  0 mm
23:13 18.6 °F /  -7.4 °C 10.1 °F /  -12.2 °C 29.99 in /  1015.5 hPa NNW 7.5 mph /  12.1 km/h 13.8 mph /  22.2 km/h 69 % 0.00 in /  0 mm
23:18 18.5 °F /  -7.5 °C 10.3 °F /  -12.1 °C 29.99 in /  1015.5 hPa WNW 7.8 mph /  12.6 km/h 15.0 mph /  24.1 km/h 70 % 0.00 in /  0 mm
23:23 18.6 °F /  -7.4 °C 10.8 °F /  -11.8 °C 29.99 in /  1015.5 hPa West 5.8 mph /  9.3 km/h 12.7 mph /  20.4 km/h 71 % 0.00 in /  0 mm
23:28 18.5 °F /  -7.5 °C 11.3 °F /  -11.5 °C 29.99 in /  1015.5 hPa West 7.6 mph /  12.2 km/h 16.1 mph /  25.9 km/h 73 % 0.00 in /  0 mm
23:33 18.6 °F /  -7.4 °C 10.8 °F /  -11.8 °C 30.00 in /  1015.8 hPa NNW 8.7 mph /  14 km/h 15.0 mph /  24.1 km/h 71 % 0.00 in /  0 mm
23:38 18.7 °F /  -7.4 °C 10.9 °F /  -11.7 °C 30.00 in /  1015.8 hPa SW 6.2 mph /  10 km/h 11.0 mph /  17.7 km/h 71 % 0.00 in /  0 mm
23:43 18.7 °F /  -7.4 °C 10.9 °F /  -11.7 °C 30.00 in /  1015.8 hPa WSW 12.8 mph /  20.6 km/h 20.7 mph /  33.3 km/h 71 % 0.00 in /  0 mm
23:48 18.8 °F /  -7.3 °C 10.6 °F /  -11.9 °C 30.01 in /  1016.1 hPa SSW 7.8 mph /  12.6 km/h 17.3 mph /  27.8 km/h 70 % 0.00 in /  0 mm
23:53 18.8 °F /  -7.3 °C 10.6 °F /  -11.9 °C 30.01 in /  1016.1 hPa WNW 8.6 mph /  13.8 km/h 24.2 mph /  38.9 km/h 70 % 0.00 in /  0 mm
23:58 18.6 °F /  -7.4 °C 10.4 °F /  -12 °C 30.02 in /  1016.5 hPa WNW 9.0 mph /  14.5 km/h 14.0 mph /  22.5 km/h 70 % 0.00 in /  0 mm
Crab Meadow Weather
Compliments of Weather Underground - 3 mb

Script developed by  Jim McMurry - jmcmurry@mwt.net Adapted for the template by  Wim van der Kuil - Leuven-Template.eu

Astronomy: The light of the Sun takes 8 minutes to reach Earth.